Location: *
(50.6089°N, 2.2719°E)
Time: 11:16:58
(UTC+00:00)

Cosmos 1864 Rocket - Pass Details

Date: 18 October 2019
Orbit: 951 x 997 km, 82.9° (Epoch: 20 November)

Event Time Altitude Azimuth Distance (km) Brightness Sun altitude
Rises 19:38:39 0° 350° (N) 3,641 7.9 -26.7°
Reaches altitude 10° 19:41:09 10° 352° (N) 2,693 7.1 -27.1°
Maximum altitude 19:47:20 81° 80° (E) 976 4.3 -28.0°
Enters shadow 19:47:34 79° 114° (ESE) 981 4.3 -28.0°
